Location: De Har
(53.3413°N, 6.6858°E)
Time: 20:59:00
(UTC+00:00)

USA 267 - Pass Details

Date: 22 April 2026
Orbit: 1101 x 1107 km, 123.0° (Epoch: 10 January)

Event Time Altitude Azimuth Distance (km) Brightness Sun altitude
Rises 01:22:30 0° 60° (ENE) 3,936 7.1 -20.4°
Reaches altitude 10° 01:25:19 10° 71° (ENE) 2,974 6.2 -20.2°
Maximum altitude 01:31:06 32° 132° (SE) 1,798 4.3 -19.7°
Enters shadow 01:34:01 23° 174° (S) 2,161 4.4 -19.5°
